K4AVM-13 Weather Reports


Display with metric or nautical units.
time (UTC)temp
F
wind
direction
speed
MPH
gust
MPH
rain 1hr
in
rain 24hr
in
rain mn
in
humidity
%
barometer
mb
20260508021801 47 141 0.0 0.0 0.00 0.14 0.14 99 1013.7
20260508021256 47 141 0.0 0.0 0.00 0.14 0.14 99 1013.6
20260508020753 47 144 0.0 0.0 0.00 0.14 0.14 99 1013.5
20260508020251 47 139 0.0 0.0 0.00 0.14 0.14 99 1013.3
20260508015747 47 138 0.0 0.0 0.00 0.14 0.14 98 1013.5
20260508015245 47 136 0.0 0.0 0.00 0.14 0.14 98 1013.0
20260508014741 47 141 0.0 0.0 0.00 0.14 0.14 98 1013.3
20260508014238 47 141 0.0 0.0 0.00 0.14 0.14 98 1013.2
20260508013734 48 141 0.0 0.0 0.00 0.14 0.14 98 1013.3
20260508013231 48 139 0.0 0.0 0.00 0.14 0.14 98 1013.4
20260508012728 48 136 0.0 0.0 0.00 0.14 0.14 98 1013.4
20260508012225 48 135 0.0 0.0 0.00 0.14 0.14 97 1013.3
20260508011723 48 143 0.0 0.0 0.00 0.14 0.14 97 1013.3
20260508011220 48 144 0.0 0.0 0.00 0.14 0.14 97 1013.3
20260508010717 49 145 0.0 0.0 0.00 0.14 0.14 97 1013.3
20260508010215 49 145 0.0 0.0 0.00 0.14 0.14 97 1013.3
20260508005712 49 145 0.0 0.0 0.00 0.14 0.14 97 1013.3
20260508005209 50 151 0.0 0.0 0.00 0.14 0.14 97 1013.3
20260508004704 50 136 0.0 0.0 0.00 0.14 0.14 96 1013.1
20260508004200 50 136 0.0 0.0 0.00 0.14 0.14 96 1012.9
20260508003657 50 144 0.0 0.0 0.00 0.14 0.14 96 1012.8
20260508003155 50 145 0.0 0.0 0.00 0.14 0.14 96 1013.0
20260508002651 50 145 0.0 0.0 0.00 0.14 0.14 96 1013.1
20260508002149 50 149 0.0 0.0 0.00 0.14 0.14 95 1013.0
20260508001644 50 144 0.0 0.0 0.00 0.14 0.14 95 1012.8
20260508001140 50 141 0.0 0.0 0.00 0.14 0.14 95 1012.5
20260508000636 50 151 0.0 0.0 0.00 0.14 0.14 94 1012.5
20260508000134 50 153 0.0 0.0 0.00 0.14 0.14 94 1012.4
20260507235630 51 157 0.0 0.0 0.00 0.14 0.14 93 1012.4
20260507235128 51 157 0.0 0.0 0.00 0.14 0.14 93 1012.5
20260507234624 51 158 0.0 0.0 0.00 0.14 0.14 93 1012.2
20260507234121 51 152 0.0 0.0 0.00 0.14 0.14 92 1012.1
20260507233618 51 152 0.0 0.0 0.00 0.14 0.14 92 1012.1
20260507233116 51 155 0.0 0.0 0.00 0.14 0.14 90 1012.0
20260507232613 51 155 0.0 0.0 0.00 0.14 0.14 90 1012.1
20260507232110 51 155 0.0 0.0 0.00 0.14 0.14 90 1012.0
20260507231606 51 153 0.0 0.0 0.00 0.14 0.14 89 1011.9
20260507231103 51 153 0.0 0.0 0.00 0.14 0.14 89 1012.0
20260507230600 51 153 0.0 0.0 0.00 0.14 0.14 89 1012.1
20260507230056 51 152 0.0 0.0 0.00 0.14 0.14 91 1011.9
20260507225551 51 154 0.0 0.0 0.00 0.14 0.14 91 1011.8
20260507225048 51 161 0.0 0.0 0.00 0.14 0.14 90 1012.0
20260507224544 51 164 0.0 0.0 0.00 0.14 0.14 89 1011.9
20260507224041 52 155 0.0 0.0 0.00 0.14 0.14 88 1011.8
20260507223537 52 145 0.0 2.0 0.00 0.14 0.14 87 1011.8
20260507223034 52 140 0.0 0.0 0.00 0.14 0.14 91 1011.9
20260507222531 52 151 0.0 0.0 0.00 0.14 0.14 91 1012.0
20260507222027 52 153 0.0 0.0 0.00 0.14 0.14 92 1012.1
20260507221524 52 147 0.0 0.0 0.00 0.14 0.14 93 1011.7
20260507221021 52 151 0.0 0.0 0.00 0.14 0.14 93 1011.7
20260507220518 52 103 0.0 0.0 0.00 0.14 0.14 92 1011.7
20260507220015 52 153 0.0 0.0 0.00 0.14 0.14 93 1012.1
20260507215511 52 149 0.0 0.0 0.00 0.14 0.14 94 1011.6
20260507215009 52 153 0.0 0.0 0.00 0.14 0.14 93 1012.0
20260507214506 52 151 0.0 0.0 0.00 0.14 0.14 94 1011.8
20260507214002 52 137 0.0 0.0 0.00 0.14 0.14 94 1011.7
20260507213458 52 132 0.0 1.0 0.00 0.14 0.14 94 1011.6
20260507212955 52 157 0.0 0.0 0.00 0.14 0.14 94 1012.0
20260507212451 52 142 0.0 1.0 0.07 0.14 0.14 95 1011.5
20260507211948 51 157 0.0 0.0 0.07 0.14 0.14 94 1011.6
20260507211445 52 135 0.0 0.0 0.00 0.13 0.13 94 1011.7
20260507210941 51 145 0.0 0.0 0.00 0.13 0.13 94 1011.6
20260507210438 51 152 0.0 0.0 0.05 0.13 0.13 94 1011.7
20260507205934 51 150 1.0 1.0 0.12 0.13 0.13 93 1011.7
20260507205432 51 152 0.0 0.0 0.07 0.12 0.12 93 1012.0
20260507204928 51 160 0.0 0.0 0.12 0.11 0.11 92 1012.6
20260507204419 52 154 0.0 0.0 0.17 0.11 0.11 92 1012.3
20260507203917 52 155 0.0 1.0 0.05 0.09 0.09 91 1011.9
20260507203415 52 160 0.0 0.0 0.00 0.08 0.08 91 1012.2
20260507202910 52 141 0.0 1.0 0.07 0.08 0.08 90 1012.1
20260507202401 52 141 1.0 1.0 0.07 0.08 0.08 89 1011.9
20260507201857 53 121 1.0 3.0 0.05 0.07 0.07 88 1012.0
20260507201352 54 133 0.0 1.0 0.05 0.07 0.07 87 1012.0
20260507200849 54 166 0.0 1.0 0.00 0.06 0.06 84 1012.2
20260507200345 54 154 0.0 0.0 0.00 0.06 0.06 81 1012.2
20260507195841 55 152 0.0 1.0 0.00 0.06 0.06 77 1012.3
20260507195339 55 70 0.0 0.0 0.00 0.06 0.06 77 1011.9
20260507194836 55 154 0.0 1.0 0.00 0.06 0.06 77 1011.8
20260507194332 55 150 0.0 1.0 0.00 0.06 0.06 79 1012.0
20260507193828 55 76 1.0 1.0 0.00 0.06 0.06 76 1012.2
20260507193326 56 0 2.0 3.0 0.00 0.06 0.06 76 1012.1
20260507192820 56 132 0.0 2.0 0.00 0.06 0.06 76 1012.1
20260507192313 56 151 0.0 1.0 0.00 0.06 0.06 76 1012.4
20260507191809 56 195 1.0 1.0 0.00 0.06 0.06 75 1012.5
20260507191305 57 60 1.0 2.0 0.00 0.06 0.06 74 1012.5
20260507190802 57 151 0.0 0.0 0.00 0.06 0.06 74 1012.3
20260507190301 57 158 0.0 0.0 0.00 0.06 0.06 73 1012.3
20260507185800 57 142 0.0 1.0 0.00 0.06 0.06 73 1012.4
20260507185255 57 121 0.0 0.0 0.00 0.06 0.06 75 1012.4
20260507184753 57 339 2.0 3.0 0.00 0.06 0.06 74 1012.3
20260507184250 57 111 0.0 0.0 0.00 0.06 0.06 76 1012.2
20260507183747 57 142 1.0 3.0 0.00 0.06 0.06 75 1012.3
20260507183243 57 136 1.0 1.0 0.00 0.06 0.06 74 1012.5
20260507182741 57 144 1.0 2.0 0.00 0.06 0.06 72 1012.6
20260507182236 57 135 1.0 2.0 0.00 0.06 0.06 71 1012.3
20260507181734 58 143 0.0 4.0 0.00 0.06 0.06 72 1012.5
20260507181230 58 119 0.0 2.0 0.00 0.06 0.06 72 1012.4
20260507180727 57 162 1.0 2.0 0.00 0.06 0.06 72 1012.3
20260507180223 58 101 0.0 2.0 0.00 0.06 0.06 71 1012.3
20260507175719 58 147 0.0 6.0 0.00 0.06 0.06 72 1012.4
20260507175216 57 35 0.0 2.0 0.00 0.06 0.06 70 1012.5
20260507174714 57 250 2.0 6.0 0.00 0.06 0.06 72 1012.6
20260507174211 57 145 0.0 3.0 0.00 0.06 0.06 72 1012.7
20260507173708 57 84 2.0 3.0 0.00 0.06 0.06 74 1012.7
20260507173205 57 39 2.0 4.0 0.00 0.06 0.06 73 1013.0
20260507172701 57 45 1.0 3.0 0.00 0.06 0.06 73 1012.8
20260507172158 57 137 1.0 1.0 0.00 0.06 0.06 73 1012.9
20260507171653 57 143 0.0 2.0 0.00 0.06 0.06 74 1012.9
20260507171150 56 130 1.0 4.0 0.00 0.06 0.06 73 1013.0
20260507170647 56 133 0.0 2.0 0.00 0.06 0.06 74 1013.3
20260507170145 56 141 0.0 1.0 0.00 0.06 0.06 76 1013.3
20260507165640 56 124 0.0 0.0 0.00 0.06 0.06 75 1013.3
20260507165137 56 141 0.0 1.0 0.00 0.06 0.06 75 1013.3
20260507164632 56 149 0.0 2.0 0.00 0.06 0.06 76 1013.2
20260507164130 56 145 0.0 3.0 0.00 0.06 0.06 76 1013.4
20260507163627 55 346 1.0 8.0 0.00 0.06 0.06 74 1013.3
20260507163124 56 141 0.0 3.0 0.00 0.06 0.06 77 1013.7
20260507162619 56 139 2.0 2.0 0.00 0.06 0.06 79 1013.5
20260507162111 56 9 4.0 6.0 0.00 0.06 0.06 78 1013.4
20260507161608 56 154 1.0 2.0 0.00 0.06 0.06 79 1013.4
20260507161104 56 106 0.0 1.0 0.00 0.06 0.06 79 1013.5
20260507160600 56 165 2.0 7.0 0.00 0.06 0.06 78 1013.6
20260507160057 55 119 2.0 2.0 0.00 0.06 0.06 79 1013.7
20260507155552 55 23 3.0 4.0 0.00 0.06 0.06 80 1013.5
20260507155050 55 357 2.0 4.0 0.00 0.06 0.06 80 1013.6
20260507154546 55 107 1.0 4.0 0.00 0.06 0.06 80 1013.6
20260507154043 55 281 4.0 6.0 0.00 0.06 0.06 79 1013.6
20260507153540 55 163 1.0 8.0 0.00 0.06 0.06 79 1013.3
20260507153036 55 332 2.0 4.0 0.00 0.06 0.06 79 1013.5
20260507152532 56 127 2.0 3.0 0.00 0.06 0.06 78 1013.6
20260507152029 56 354 1.0 11.0 0.00 0.06 0.06 77 1013.5
20260507151525 56 58 0.0 9.0 0.00 0.06 0.06 76 1013.8
20260507151022 56 111 1.0 7.0 0.00 0.06 0.06 77 1013.8
20260507150519 56 49 2.0 3.0 0.00 0.06 0.06 79 1013.9
20260507150016 56 145 1.0 3.0 0.00 0.06 0.06 79 1013.4
20260507145510 56 356 2.0 3.0 0.00 0.06 0.06 80 1013.2
20260507145009 56 69 2.0 6.0 0.00 0.06 0.06 79 1013.4
20260507144505 57 21 3.0 4.0 0.00 0.06 0.06 79 1013.2
20260507144003 57 116 2.0 3.0 0.00 0.06 0.06 78 1013.4
20260507143500 57 327 1.0 3.0 0.00 0.06 0.06 79 1013.5
20260507142956 57 133 0.0 2.0 0.00 0.06 0.06 80 1013.3
20260507142452 57 20 1.0 3.0 0.00 0.06 0.06 78 1013.5
20260507141949 57 138 0.0 0.0 0.00 0.06 0.06 79 1013.6
20260507141445 57 149 1.0 2.0 0.00 0.06 0.06 79 1013.6
20260507140942 57 81 2.0 8.0 0.00 0.06 0.06 79 1013.6
20260507140439 57 170 2.0 4.0 0.00 0.06 0.06 79 1013.8
20260507135936 57 148 1.0 4.0 0.00 0.06 0.06 79 1013.8
20260507135433 57 15 1.0 2.0 0.00 0.06 0.06 79 1013.6
20260507134930 58 19 2.0 3.0 0.00 0.06 0.06 78 1013.8
20260507134427 57 172 1.0 4.0 0.00 0.06 0.06 79 1013.4
20260507133923 57 31 4.0 6.0 0.00 0.06 0.06 78 1013.4
20260507133418 57 29 2.0 3.0 0.00 0.06 0.06 78 1013.4
20260507132912 57 145 1.0 2.0 0.00 0.06 0.06 79 1013.3
20260507132407 57 325 6.0 8.0 0.00 0.06 0.06 80 1013.2
20260507131906 57 223 2.0 6.0 0.00 0.06 0.06 80 1013.4
20260507131401 57 326 5.0 8.0 0.00 0.06 0.06 80 1013.6
20260507130858 57 8 3.0 6.0 0.00 0.06 0.06 81 1013.2
20260507130355 57 163 1.0 7.0 0.00 0.06 0.06 82 1013.2
20260507125854 57 51 2.0 3.0 0.00 0.06 0.06 83 1013.4
20260507125351 57 332 6.0 9.0 0.00 0.06 0.06 82 1013.2
20260507124849 57 134 0.0 7.0 0.00 0.06 0.06 84 1013.5
20260507124344 57 163 4.0 7.0 0.00 0.06 0.06 85 1013.2
20260507123843 57 141 1.0 3.0 0.00 0.06 0.06 90 1013.2
20260507123340 57 10 3.0 7.0 0.00 0.06 0.06 91 1013.4
20260507122836 57 68 2.0 3.0 0.00 0.06 0.06 92 1013.1
20260507122332 57 82 1.0 2.0 0.00 0.06 0.06 92 1013.0
20260507121828 57 349 1.0 2.0 0.00 0.06 0.06 92 1012.8
20260507121324 57 43 4.0 8.0 0.00 0.06 0.06 92 1013.0
20260507120821 57 17 1.0 3.0 0.00 0.06 0.06 92 1012.8
20260507120317 57 92 1.0 2.0 0.00 0.06 0.06 92 1013.3
20260507115813 57 144 1.0 4.0 0.00 0.06 0.06 92 1013.2
20260507115309 57 4 3.0 3.0 0.00 0.06 0.06 92 1012.9
20260507114805 57 274 2.0 2.0 0.00 0.06 0.06 91 1013.3
20260507114302 56 229 2.0 3.0 0.00 0.06 0.06 91 1013.2
20260507113800 56 168 1.0 3.0 0.00 0.06 0.06 91 1013.1
20260507113256 56 301 1.0 3.0 0.00 0.06 0.06 92 1013.0
20260507112754 56 122 3.0 4.0 0.00 0.06 0.06 93 1012.8
20260507112251 56 113 3.0 3.0 0.00 0.06 0.06 93 1012.8
20260507111749 56 142 0.0 1.0 0.00 0.06 0.06 94 1012.6
20260507111245 56 19 2.0 3.0 0.00 0.06 0.06 95 1012.7
20260507110741 56 151 0.0 1.0 0.00 0.06 0.06 95 1012.9
20260507110238 56 178 0.0 0.0 0.00 0.06 0.06 95 1012.7
20260507105735 56 225 0.0 1.0 0.00 0.06 0.06 96 1012.5
20260507105231 56 22 0.0 1.0 0.00 0.06 0.06 96 1012.5
20260507104728 56 173 0.0 2.0 0.00 0.06 0.06 96 1012.4
20260507104225 56 94 1.0 2.0 0.00 0.06 0.06 96 1012.6
20260507103721 56 322 1.0 2.0 0.00 0.06 0.06 96 1012.0
20260507103217 56 352 1.0 3.0 0.00 0.06 0.06 96 1012.3
20260507102713 56 74 1.0 1.0 0.00 0.06 0.06 96 1012.3
20260507102210 56 153 0.0 3.0 0.00 0.06 0.06 96 1012.0
20260507101706 56 107 1.0 3.0 0.00 0.06 0.06 96 1011.9
20260507101201 56 162 2.0 2.0 0.00 0.06 0.06 97 1012.1
20260507100659 56 149 0.0 3.0 0.00 0.06 0.06 97 1012.3
20260507100158 56 359 2.0 3.0 0.00 0.06 0.06 96 1012.3
20260507095655 56 172 0.0 1.0 0.07 0.06 0.06 96 1012.4
20260507095151 57 68 3.0 4.0 0.26 0.06 0.06 95 1012.2
20260507094648 57 289 3.0 4.0 0.19 0.05 0.05 94 1012.2
20260507094145 57 203 1.0 2.0 0.00 0.02 0.02 93 1012.4
20260507093642 57 283 2.0 6.0 0.00 0.02 0.02 93 1012.5
20260507093141 57 159 2.0 3.0 0.00 0.02 0.02 93 1012.4
20260507092637 57 127 0.0 1.0 0.00 0.02 0.02 93 1012.1
20260507092134 58 111 1.0 6.0 0.00 0.02 0.02 92 1012.3
20260507091630 58 149 1.0 3.0 0.05 0.02 0.02 94 1012.3
20260507091126 58 35 2.0 2.0 0.12 0.02 0.02 93 1012.0
20260507090622 59 163 1.0 2.0 0.07 0.01 0.01 93 1012.5
20260507090120 59 77 5.0 7.0 0.00 0.00 0.00 92 1012.2
20260507085616 59 8 2.0 6.0 0.00 0.00 0.00 92 1012.4
20260507085113 59 182 1.0 4.0 0.00 0.00 0.00 92 1012.0
20260507084610 59 150 0.0 8.0 0.00 0.00 0.00 92 1012.0
20260507084107 60 1 3.0 4.0 0.00 0.00 0.00 92 1011.8
20260507083603 60 6 4.0 8.0 0.00 0.00 0.00 92 1011.8
20260507083101 60 41 1.0 3.0 0.00 0.00 0.00 91 1011.4
20260507082556 61 294 2.0 8.0 0.00 0.00 0.00 91 1011.7
20260507082053 62 102 1.0 4.0 0.00 0.00 0.00 92 1011.8
20260507081549 63 317 3.0 6.0 0.00 0.00 0.00 93 1011.6
20260507081046 64 102 1.0 9.0 0.00 0.00 0.00 93 1011.4
20260507080542 66 200 1.0 7.0 0.00 0.00 0.00 94 1011.0
20260507080038 66 162 0.0 4.0 0.00 0.00 0.00 93 1011.0
20260507075534 67 33 2.0 6.0 0.00 0.00 0.00 92 1010.9
20260507075030 67 349 2.0 6.0 0.00 0.00 0.00 92 1010.5
20260507074527 67 344 0.0 2.0 0.00 0.00 0.00 92 1010.9
20260507074026 67 151 0.0 2.0 0.00 0.00 0.00 91 1010.9
20260507073521 67 144 0.0 1.0 0.00 0.00 0.00 91 1010.9
20260507073018 67 149 0.0 1.0 0.00 0.00 0.00 91 1010.8
20260507072516 67 145 0.0 0.0 0.00 0.00 0.00 90 1011.0
20260507072013 68 141 0.0 0.0 0.00 0.00 0.00 90 1010.9
20260507071510 67 102 0.0 0.0 0.00 0.00 0.00 90 1011.1
20260507071006 68 156 0.0 1.0 0.00 0.00 0.00 90 1011.1
20260507070504 68 109 1.0 1.0 0.00 0.00 0.00 90 1010.8
20260507070001 68 153 0.0 1.0 0.00 0.00 0.00 89 1010.4
20260507065457 68 126 0.0 0.0 0.00 0.00 0.00 89 1010.3
20260507064954 68 141 1.0 2.0 0.00 0.00 0.00 88 1010.2
20260507064452 69 151 0.0 1.0 0.00 0.00 0.00 88 1010.3
20260507063950 69 141 0.0 1.0 0.00 0.00 0.00 87 1010.2
20260507063447 69 154 0.0 2.0 0.00 0.00 0.00 87 1009.9
20260507062943 69 151 0.0 4.0 0.00 0.00 0.00 87 1009.7
20260507062441 69 200 2.0 2.0 0.00 0.00 0.00 87 1009.8
20260507061938 69 168 0.0 1.0 0.00 0.00 0.00 87 1009.9
20260507061436 69 169 0.0 2.0 0.00 0.00 0.00 86 1009.8
20260507060934 69 115 2.0 2.0 0.00 0.00 0.00 86 1009.9
20260507060431 69 161 1.0 2.0 0.00 0.00 0.00 85 1009.9
20260507055927 69 177 1.0 3.0 0.00 0.00 0.00 85 1009.8
20260507055422 69 141 2.0 4.0 0.00 0.00 0.00 85 1009.9
20260507054914 69 155 1.0 2.0 0.00 0.00 0.00 85 1010.1
20260507054410 69 154 0.0 2.0 0.00 0.00 0.00 85 1009.9
20260507053908 69 159 0.0 2.0 0.00 0.00 0.00 85 1009.8
20260507053405 70 144 1.0 2.0 0.00 0.00 0.00 85 1010.1
20260507052904 70 145 0.0 4.0 0.00 0.00 0.00 85 1010.2
20260507052401 70 176 0.0 1.0 0.00 0.00 0.00 85 1010.4
20260507051858 69 169 1.0 3.0 0.00 0.00 0.00 85 1010.4
20260507051355 69 197 1.0 4.0 0.00 0.00 0.00 85 1010.9
20260507050852 69 117 1.0 2.0 0.00 0.00 0.00 85 1011.0
20260507050348 69 159 1.0 1.0 0.00 0.00 0.00 85 1011.3
20260507045845 69 132 1.0 2.0 0.00 0.00 0.00 86 1011.3
20260507045342 69 141 1.0 1.0 0.00 0.00 0.00 86 1011.3
20260507044839 69 113 1.0 2.0 0.00 0.00 0.00 86 1011.3
20260507044335 69 136 1.0 2.0 0.00 0.00 0.00 86 1011.1
20260507043831 69 153 1.0 2.0 0.00 0.00 0.00 85 1011.2
20260507043328 69 171 2.0 4.0 0.00 0.00 0.00 86 1011.5
20260507042825 69 211 0.0 3.0 0.00 0.00 0.00 86 1011.5
20260507042320 69 161 0.0 2.0 0.00 0.00 0.00 86 1011.5
20260507041817 69 160 0.0 2.0 0.00 0.00 0.00 86 1011.4
20260507041314 69 185 0.0 1.0 0.00 0.00 0.00 87 1011.1
20260507040811 69 175 1.0 1.0 0.00 0.00 0.00 87 1011.1
20260507040307 69 149 0.0 1.0 0.00 0.00 0.00 87 1011.3
20260507035803 69 144 0.0 1.0 0.00 0.10 0.10 87 1011.3
20260507035259 69 150 0.0 4.0 0.00 0.10 0.10 87 1011.3
20260507034757 69 151 0.0 6.0 0.00 0.10 0.10 87 1011.4
20260507034253 69 181 0.0 1.0 0.00 0.10 0.10 88 1011.6
20260507033752 68 156 1.0 2.0 0.00 0.10 0.10 88 1011.3
20260507033249 68 154 1.0 3.0 0.00 0.10 0.10 87 1011.2
20260507032746 68 178 2.0 4.0 0.00 0.10 0.10 88 1011.0
20260507032242 68 161 0.0 0.0 0.00 0.10 0.10 88 1010.9
20260507031738 68 141 1.0 3.0 0.00 0.10 0.10 88 1011.0
20260507031235 68 174 0.0 2.0 0.00 0.10 0.10 88 1011.0
20260507030732 68 161 1.0 1.0 0.00 0.10 0.10 88 1011.1
20260507030229 68 154 0.0 4.0 0.00 0.10 0.10 88 1010.9
20260507025727 68 151 0.0 1.0 0.00 0.10 0.10 88 1010.9
20260507025223 68 141 0.0 6.0 0.00 0.10 0.10 88 1010.9
20260507024722 68 150 0.0 3.0 0.00 0.10 0.10 88 1010.6
20260507024219 68 174 1.0 1.0 0.00 0.10 0.10 88 1010.9
20260507023714 68 161 1.0 2.0 0.00 0.10 0.10 87 1011.0
20260507023211 68 172 0.0 3.0 0.00 0.10 0.10 87 1011.0
20260507022709 69 169 0.0 2.0 0.00 0.10 0.10 87 1011.4